Change the Weather History Date:

Friday, November 2, 2012

  Actual Average Record
Temperature  
Mean Temperature 40 °F -  
Max Temperature 57 °F 43 °F 60 °F (2004)
Min Temperature 23 °F 26 °F 12 °F (1999)
Degree Days  
Heating Degree Days 25    
Moisture  
Dew Point 35 °F    
Average Humidity 77    
Maximum Humidity 100    
Minimum Humidity 30    
Precipitation  
Precipitation 0.00 in 0.05 in - ()
Sea Level Pressure  
Sea Level Pressure 30.19 in    
Wind  
Wind Speed 3 mph ()    
Max Wind Speed 9 mph    
Max Gust Speed -    
Visibility 6.0 miles    
Events Fog , Rain    
Averages and records for this station are not official NWS values.
T = Trace of Precipitation, MM = Missing Value Source: Averaged Metar Reports

Daily Weather History Graph

Daily Weather History Graph

Search for Another Location

Airport or City:

Trip Planner

Search our weather history database for the weather conditions in past years. The results will help you decide how hot, cold, wet, or windy it might be!

Date:

Astronomy

Nov. 02, 2012 Rise Set
Actual Time 5:45 AM EET 4:11 PM EET
Civil Twilight 5:17 AM EET 4:39 PM EET
Nautical Twilight 4:45 AM EET 5:11 PM EET
Astronomical Twilight 4:13 AM EET 5:43 PM EET
Moon 6:40 PM EET (11/2) 8:49 AM EET (11/2)
Length of Visible Light 11h 22m
Length of Day
10h 26m
Waning Gibbous, 89% of the Moon is Illuminated
Nov 2
Waning Gibbous
Nov 7
Last Quarter
Nov 14
New
Nov 20
First Quarter
Nov 28
Full

Hourly Weather History & Observations

Time (EET) Temp. Windchill Dew Point Humidity Pressure Visibility Wind Dir Wind Speed Gust Speed Precip Events Conditions
12:20 AM 30.2 °F 25.4 °F 30.2 °F 100% 30.21 in - SE 4.6 mph - N/A   Clear
12:50 AM 30.2 °F 26.7 °F 30.2 °F 100% 30.24 in - WSW 3.5 mph - N/A   Clear
1:20 AM 30.2 °F 25.4 °F 30.2 °F 100% 30.21 in - WNW 4.6 mph - N/A   Clear
1:50 AM 28.4 °F - 28.4 °F 100% 30.21 in - Calm Calm - N/A   Clear
2:00 AM 29 °F - 29 °F 99%  in 12 mi Calm Calm - -  
2:20 AM 28.4 °F - 28.4 °F 100% 30.21 in - Calm Calm - N/A   Clear
2:50 AM 30.2 °F 26.7 °F 30.2 °F 100% 30.21 in - South 3.5 mph - N/A   Clear
3:20 AM 28.4 °F - 28.4 °F 100% 30.21 in - Calm Calm - N/A   Clear
3:50 AM 28.4 °F - 28.4 °F 100% 30.21 in - Calm Calm - N/A   Clear
4:20 AM 26.6 °F - 26.6 °F 100% 30.21 in - NW 2.3 mph - N/A   Clear
4:50 AM 26.6 °F - 24.8 °F 93% 30.21 in - Variable 2.3 mph - N/A   Clear
5:20 AM 26.6 °F - 26.6 °F 100% 30.21 in 0.5 mi Variable 2.3 mph - N/A Fog Light Freezing Fog
5:50 AM 24.8 °F - 24.8 °F 100% 30.21 in 0.7 mi Calm Calm - N/A   Mist
6:20 AM 24.8 °F - 24.8 °F 100% 30.24 in 0.7 mi Calm Calm - N/A   Mist
6:50 AM 28.4 °F - 28.4 °F 100% 30.24 in 3.7 mi Variable 1.2 mph - N/A   Unknown
7:20 AM 32.0 °F - 32.0 °F 100% 30.24 in 3.7 mi Variable 2.3 mph - N/A   Unknown
7:50 AM 35.6 °F - 33.8 °F 93% 30.24 in 4.3 mi Calm Calm - N/A   Unknown
8:00 AM 35 °F - 34 °F 94%  in 4 mi Calm Calm - -   Mist
8:20 AM 37.4 °F - 35.6 °F 93% 30.24 in 5.0 mi Variable 2.3 mph - N/A   Unknown
8:50 AM 42.8 °F - 37.4 °F 81% 30.24 in - Variable 1.2 mph - N/A   Clear
9:20 AM 44.6 °F - 37.4 °F 76% 30.24 in 6.2 mi Variable 1.2 mph - N/A   Scattered Clouds
9:50 AM 48.2 °F - 37.4 °F 66% 30.24 in 6.2 mi Variable 1.2 mph - N/A   Scattered Clouds
10:20 AM 48.2 °F - 37.4 °F 66% 30.24 in 6.2 mi NW 2.3 mph - N/A   Scattered Clouds
10:50 AM 50.0 °F - 37.4 °F 62% 30.21 in 6.2 mi Variable 1.2 mph - N/A   Scattered Clouds
11:20 AM 53.6 °F - 37.4 °F 54% 30.18 in 6.2 mi Variable 3.5 mph - N/A   Scattered Clouds
11:50 AM 55.4 °F - 35.6 °F 47% 30.18 in 6.2 mi NW 4.6 mph - N/A   Scattered Clouds
12:20 PM 55.4 °F - 37.4 °F 51% 30.18 in 6.2 mi West 4.6 mph - N/A   Scattered Clouds
12:50 PM 55.4 °F - 37.4 °F 51% 30.15 in 6.2 mi West 4.6 mph - N/A   Scattered Clouds
1:20 PM 57.2 °F - 33.8 °F 41% 30.15 in 6.2 mi West 8.1 mph - N/A   Scattered Clouds
1:50 PM 57.2 °F - 33.8 °F 41% 30.15 in 6.2 mi West 9.2 mph - N/A   Scattered Clouds
2:00 PM 57 °F - 34 °F 30%  in 12 mi West 9.2 mph - -   Scattered Clouds
2:20 PM 55.4 °F - 35.6 °F 47% 30.15 in 6.2 mi West 9.2 mph - N/A   Scattered Clouds
2:50 PM 55.4 °F - 35.6 °F 47% 30.15 in 6.2 mi West 9.2 mph - N/A   Mostly Cloudy
3:20 PM 55.4 °F - 37.4 °F 51% 30.15 in 6.2 mi West 8.1 mph - N/A   Mostly Cloudy
3:50 PM 53.6 °F - 35.6 °F 51% 30.15 in 6.2 mi West 8.1 mph - N/A   Mostly Cloudy
4:20 PM 51.8 °F - 37.4 °F 58% 30.15 in 6.2 mi West 5.8 mph - N/A   Mostly Cloudy
4:50 PM 50.0 °F - 37.4 °F 62% 30.15 in 6.2 mi West 9.2 mph - N/A   Mostly Cloudy
5:20 PM 50.0 °F - 37.4 °F 62% 30.15 in 6.2 mi West 8.1 mph - N/A   Mostly Cloudy
5:50 PM 48.2 °F - 37.4 °F 66% 30.15 in 6.2 mi SSW 4.6 mph - N/A   Mostly Cloudy
6:20 PM 48.2 °F - 37.4 °F 66% 30.15 in 6.2 mi NW 2.3 mph - N/A   Scattered Clouds
6:50 PM 48.2 °F - 37.4 °F 66% 30.15 in 6.2 mi WNW 3.5 mph - N/A   Scattered Clouds
7:20 PM 48.2 °F - 39.2 °F 71% 30.15 in 6.2 mi Variable 1.2 mph - N/A   Scattered Clouds
7:50 PM 46.4 °F - 39.2 °F 76% 30.18 in 6.2 mi Variable 2.3 mph - N/A   Scattered Clouds
8:00 PM 46 °F - 39 °F 69%  in 12 mi SE 2.3 mph - -   Partly Cloudy
8:20 PM 46.4 °F 45.2 °F 37.4 °F 71% 30.18 in 6.2 mi East 3.5 mph - N/A   Partly Cloudy
8:50 PM 44.6 °F - 39.2 °F 81% 30.18 in 6.2 mi Variable 2.3 mph - N/A   Scattered Clouds
9:20 PM 46.4 °F 45.2 °F 41.0 °F 81% 30.18 in 6.2 mi SE 3.5 mph - N/A Rain Light Rain Showers
9:50 PM 46.4 °F - 41.0 °F 81% 30.18 in 6.2 mi Variable 1.2 mph - N/A   Partly Cloudy
10:20 PM 46.4 °F 44.3 °F 41.0 °F 81% 30.18 in 6.2 mi NW 4.6 mph - N/A   Partly Cloudy
10:50 PM 44.6 °F 41.4 °F 41.0 °F 87% 30.18 in 6.2 mi North 5.8 mph - N/A   Partly Cloudy
11:20 PM 44.6 °F 41.4 °F 41.0 °F 87% 30.18 in 6.2 mi NE 5.8 mph - N/A   Partly Cloudy
11:50 PM 42.8 °F - 39.2 °F 87% 30.18 in 6.2 mi NNE 2.3 mph - N/A   Partly Cloudy